LPA502 UGTB-LTAC

Flight info

Callsign LPA502
Flight time 1h 39m
Altitude 32000
Route ZAGOT DCT NOLGA UN61 TBN UW71 ILHAN
Aircraft B738/M-SDE2E3FGHIRWXY/LB1

Departure

Time 2026-04-28 18:02
Airport Tbilisi International Airport (UGTB)

Arrival

Time 2026-04-28 19:41
Airport Esenboğa International Airport (LTAC)
Time Latitude Longitude Altitude Speed Heading
2026-04-28 17:27 41.66829 44.96451 1526 ft 0 kts 44°
2026-04-28 17:48 41.66822 44.96441 1518 ft 3 kts 42°
2026-04-28 17:49 41.66807 44.96424 1518 ft 3 kts 37°
2026-04-28 17:49 41.66790 44.96408 1519 ft 3 kts 30°
2026-04-28 17:49 41.66772 44.96396 1520 ft 3 kts 15°
2026-04-28 17:49 41.66754 44.96393 1523 ft 3 kts 339°
2026-04-28 17:50 41.66746 44.96398 1518 ft 0 kts 313°
2026-04-28 17:54 41.66749 44.96393 1518 ft 2 kts 313°
2026-04-28 17:54 41.66763 44.96374 1519 ft 4 kts 313°
2026-04-28 17:54 41.66789 44.96337 1521 ft 7 kts 313°
2026-04-28 17:54 41.66827 44.96284 1523 ft 9 kts 314°
2026-04-28 17:55 41.66871 44.96220 1526 ft 9 kts 312°
2026-04-28 17:55 41.66913 44.96154 1525 ft 9 kts 310°
2026-04-28 17:55 41.66955 44.96092 1524 ft 9 kts 313°
2026-04-28 17:55 41.66996 44.96032 1524 ft 9 kts 313°
2026-04-28 17:56 41.67036 44.95974 1520 ft 8 kts 313°
2026-04-28 17:56 41.67069 44.95909 1525 ft 8 kts 298°
2026-04-28 17:56 41.67105 44.95846 1523 ft 9 kts 312°
2026-04-28 17:56 41.67156 44.95772 1521 ft 12 kts 313°
2026-04-28 17:57 41.67226 44.95679 1521 ft 16 kts 315°
2026-04-28 17:57 41.67308 44.95564 1523 ft 17 kts 313°
2026-04-28 17:57 41.67390 44.95448 1525 ft 17 kts 312°
2026-04-28 17:57 41.67465 44.95332 1520 ft 16 kts 311°
2026-04-28 17:58 41.67539 44.95221 1521 ft 16 kts 311°
2026-04-28 17:58 41.67611 44.95117 1523 ft 15 kts 314°
2026-04-28 17:58 41.67663 44.95005 1525 ft 14 kts 266°
2026-04-28 17:58 41.67638 44.94879 1523 ft 14 kts 254°
2026-04-28 17:59 41.67611 44.94760 1520 ft 13 kts 252°
2026-04-28 17:59 41.67583 44.94646 1524 ft 13 kts 252°
2026-04-28 17:59 41.67556 44.94535 1519 ft 12 kts 252°
2026-04-28 17:59 41.67530 44.94423 1517 ft 13 kts 257°
2026-04-28 18:00 41.67554 44.94311 1519 ft 13 kts 314°
2026-04-28 18:00 41.67621 44.94225 1525 ft 14 kts 316°
2026-04-28 18:00 41.67705 44.94121 1525 ft 18 kts 317°
2026-04-28 18:00 41.67786 44.94069 1525 ft 12 kts 316°
2026-04-28 18:01 41.67752 44.94052 1521 ft 9 kts 124°
2026-04-28 18:01 41.67722 44.94097 1525 ft 4 kts 136°
2026-04-28 18:01 41.67686 44.94143 1525 ft 18 kts 136°
2026-04-28 18:01 41.67425 44.94473 1520 ft 85 kts 136°
2026-04-28 18:02 41.66846 44.95203 1525 ft 142 kts 136°
2026-04-28 18:02 41.66020 44.96239 1681 ft 177 kts 137°
2026-04-28 18:02 41.65130 44.97351 2588 ft 168 kts 136°
2026-04-28 18:02 41.64270 44.98420 3328 ft 178 kts 135°
2026-04-28 18:03 41.63321 44.99607 3482 ft 199 kts 135°
2026-04-28 18:03 41.62256 45.00935 3577 ft 215 kts 135°
2026-04-28 18:03 41.61128 45.02343 3763 ft 231 kts 136°
2026-04-28 18:03 41.59910 45.03855 4107 ft 244 kts 137°
2026-04-28 18:04 41.58376 45.04869 4660 ft 254 kts 168°
2026-04-28 18:04 41.56607 45.04727 5356 ft 260 kts 193°
2026-04-28 18:04 41.54973 45.03600 5907 ft 272 kts 218°
2026-04-28 18:04 41.53820 45.01582 6575 ft 278 kts 245°
2026-04-28 18:05 41.53332 44.99113 7239 ft 283 kts 259°
2026-04-28 18:05 41.53156 44.97348 7656 ft 285 kts 262°
2026-04-28 18:05 41.52886 44.93852 8553 ft 287 kts 263°
2026-04-28 18:05 41.52690 44.91184 9189 ft 290 kts 263°
2026-04-28 18:06 41.52486 44.88490 9867 ft 293 kts 264°
2026-04-28 18:06 41.52272 44.85766 10404 ft 300 kts 264°
2026-04-28 18:06 41.52040 44.82903 10569 ft 321 kts 263°
2026-04-28 18:06 41.51788 44.79856 10738 ft 340 kts 263°
2026-04-28 18:07 41.51516 44.76633 10928 ft 357 kts 263°
2026-04-28 18:07 41.51231 44.73280 11282 ft 368 kts 263°
2026-04-28 18:07 41.50938 44.69861 11778 ft 373 kts 263°
2026-04-28 18:07 41.50639 44.66408 12408 ft 376 kts 263°
2026-04-28 18:08 41.50339 44.62940 13097 ft 377 kts 263°
2026-04-28 18:08 41.50036 44.59463 13783 ft 378 kts 263°
2026-04-28 18:08 41.49730 44.55961 14369 ft 382 kts 263°
2026-04-28 18:08 41.49420 44.52430 14946 ft 385 kts 263°
2026-04-28 18:09 41.49106 44.48867 15552 ft 388 kts 263°
2026-04-28 18:09 41.48790 44.45281 16152 ft 391 kts 263°
2026-04-28 18:09 41.48470 44.41669 16727 ft 394 kts 263°
2026-04-28 18:09 41.48168 44.38018 17288 ft 398 kts 265°
2026-04-28 18:10 41.47992 44.34317 17872 ft 401 kts 266°
2026-04-28 18:10 41.47882 44.30583 18444 ft 405 kts 267°
2026-04-28 18:10 41.47788 44.26823 18963 ft 407 kts 267°
2026-04-28 18:10 41.47690 44.23047 19531 ft 407 kts 267°
2026-04-28 18:11 41.47583 44.19268 20041 ft 410 kts 266°
2026-04-28 18:11 41.47465 44.15467 20587 ft 411 kts 265°
2026-04-28 18:11 41.47341 44.11658 21147 ft 411 kts 265°
2026-04-28 18:11 41.47210 44.07847 21600 ft 414 kts 265°
2026-04-28 18:12 41.47076 44.04018 22106 ft 415 kts 265°
2026-04-28 18:12 41.46937 44.00146 22516 ft 419 kts 265°
2026-04-28 18:12 41.46800 43.96364 22874 ft 423 kts 265°
2026-04-28 18:12 41.46656 43.92438 23323 ft 425 kts 265°
2026-04-28 18:13 41.46510 43.88487 23731 ft 428 kts 265°
2026-04-28 18:13 41.46362 43.84519 24090 ft 429 kts 265°
2026-04-28 18:13 41.46213 43.80542 24498 ft 430 kts 265°
2026-04-28 18:13 41.46063 43.76559 24916 ft 431 kts 265°
2026-04-28 18:14 41.45910 43.72568 25279 ft 432 kts 265°
2026-04-28 18:14 41.45756 43.68563 25623 ft 433 kts 265°
2026-04-28 18:14 41.45600 43.64549 25960 ft 434 kts 265°
2026-04-28 18:14 41.45442 43.60527 26330 ft 435 kts 265°
2026-04-28 18:15 41.45283 43.56500 26686 ft 436 kts 265°
2026-04-28 18:15 41.45121 43.52454 27031 ft 438 kts 265°
2026-04-28 18:15 41.44958 43.48392 27327 ft 440 kts 265°
2026-04-28 18:15 41.44794 43.44373 27628 ft 441 kts 264°
2026-04-28 18:16 41.44627 43.40294 27948 ft 442 kts 264°
2026-04-28 18:16 41.44459 43.36215 28374 ft 440 kts 264°
2026-04-28 18:16 41.44291 43.32165 28902 ft 436 kts 264°
2026-04-28 18:16 41.44124 43.28142 29401 ft 433 kts 264°
2026-04-28 18:17 41.43956 43.24148 29853 ft 431 kts 264°
2026-04-28 18:17 41.43785 43.20165 30235 ft 430 kts 264°
2026-04-28 18:17 41.43612 43.16193 30560 ft 429 kts 264°
2026-04-28 18:17 41.43439 43.12220 30838 ft 430 kts 264°
2026-04-28 18:18 41.43264 43.08240 31089 ft 431 kts 264°
2026-04-28 18:18 41.43090 43.04263 31412 ft 430 kts 264°
2026-04-28 18:18 41.42913 43.00288 31707 ft 430 kts 264°
2026-04-28 18:18 41.42793 42.97780 31851 ft 430 kts 263°
2026-04-28 18:19 41.42267 42.92488 31977 ft 433 kts 258°
2026-04-28 18:19 41.41771 42.88533 32019 ft 433 kts 258°
2026-04-28 18:19 41.40751 42.80679 31993 ft 427 kts 258°
2026-04-28 18:20 41.39766 42.72897 32008 ft 426 kts 258°
2026-04-28 18:20 41.38798 42.65096 32010 ft 427 kts 258°
2026-04-28 18:21 41.37831 42.57287 32014 ft 428 kts 258°
2026-04-28 18:21 41.36857 42.49464 32011 ft 429 kts 258°
2026-04-28 18:22 41.35880 42.41669 32023 ft 430 kts 258°
2026-04-28 18:22 41.34891 42.33820 32018 ft 430 kts 258°
2026-04-28 18:23 41.33896 42.25974 32038 ft 429 kts 258°
2026-04-28 18:23 41.32898 42.18139 32032 ft 430 kts 258°
2026-04-28 18:24 41.32058 42.11579 32051 ft 429 kts 258°
2026-04-28 18:24 41.30888 42.02486 32059 ft 428 kts 258°
2026-04-28 18:25 41.29891 41.94790 32062 ft 429 kts 258°
2026-04-28 18:26 41.28345 41.83065 32085 ft 430 kts 258°
2026-04-28 18:26 41.27304 41.75236 32083 ft 430 kts 258°
2026-04-28 18:27 41.26261 41.67411 32084 ft 430 kts 258°
2026-04-28 18:27 41.25212 41.59585 32096 ft 430 kts 258°
2026-04-28 18:28 41.24158 41.51759 32086 ft 430 kts 258°
2026-04-28 18:28 41.23099 41.43942 32089 ft 430 kts 258°
2026-04-28 18:29 41.22035 41.36127 32114 ft 430 kts 258°
2026-04-28 18:29 41.20966 41.28318 32078 ft 430 kts 258°
2026-04-28 18:30 41.19891 41.20512 32127 ft 430 kts 258°
2026-04-28 18:30 41.18812 41.12709 32140 ft 430 kts 258°
2026-04-28 18:31 41.17911 41.06223 32138 ft 430 kts 258°
2026-04-28 18:31 41.16840 40.98554 32141 ft 430 kts 258°
2026-04-28 18:32 41.15745 40.90753 32162 ft 430 kts 258°
2026-04-28 18:32 41.14644 40.82953 32152 ft 430 kts 258°
2026-04-28 18:33 41.13539 40.75157 32141 ft 430 kts 258°
2026-04-28 18:33 41.12428 40.67361 32161 ft 430 kts 257°
2026-04-28 18:34 41.11312 40.59570 32137 ft 430 kts 257°
2026-04-28 18:34 41.10190 40.51779 32133 ft 430 kts 257°
2026-04-28 18:35 41.09065 40.44001 32112 ft 430 kts 257°
2026-04-28 18:35 41.07934 40.36222 32105 ft 430 kts 257°
2026-04-28 18:36 41.06805 40.28500 32109 ft 429 kts 257°
2026-04-28 18:36 41.05665 40.20735 32116 ft 429 kts 257°
2026-04-28 18:37 41.04520 40.12975 32127 ft 429 kts 257°
2026-04-28 18:37 41.03370 40.05217 32144 ft 429 kts 257°
2026-04-28 18:38 41.02232 39.97583 32144 ft 429 kts 257°
2026-04-28 18:38 41.01073 39.89829 32154 ft 429 kts 257°
2026-04-28 18:39 40.99933 39.82075 32156 ft 430 kts 261°
2026-04-28 18:39 40.99951 39.74157 32153 ft 433 kts 275°
2026-04-28 18:40 41.00771 39.66249 32148 ft 434 kts 275°
2026-04-28 18:40 41.01560 39.58339 32167 ft 433 kts 275°
2026-04-28 18:41 41.02317 39.50430 32141 ft 432 kts 275°
2026-04-28 18:41 41.03058 39.42542 32133 ft 431 kts 275°
2026-04-28 18:42 41.03792 39.34675 32126 ft 430 kts 275°
2026-04-28 18:42 41.04520 39.26824 32109 ft 429 kts 275°
2026-04-28 18:43 41.05242 39.18986 32114 ft 428 kts 275°
2026-04-28 18:43 41.05959 39.11157 32101 ft 428 kts 275°
2026-04-28 18:44 41.06683 39.03329 32097 ft 428 kts 275°
2026-04-28 18:44 41.07750 38.91723 32101 ft 428 kts 275°
2026-04-28 18:45 41.08462 38.83893 32115 ft 428 kts 275°
2026-04-28 18:45 41.09165 38.76112 32109 ft 428 kts 275°
2026-04-28 18:46 41.09865 38.68272 32117 ft 428 kts 275°
2026-04-28 18:46 41.10543 38.60427 32118 ft 428 kts 274°
2026-04-28 18:47 41.11206 38.52572 32125 ft 429 kts 274°
2026-04-28 18:47 41.11861 38.44715 32130 ft 429 kts 274°
2026-04-28 18:48 41.12513 38.36856 32141 ft 429 kts 274°
2026-04-28 18:48 41.13161 38.29001 32146 ft 429 kts 274°
2026-04-28 18:49 41.13696 38.22467 32150 ft 429 kts 274°
2026-04-28 18:49 41.14447 38.13285 32146 ft 428 kts 274°
2026-04-28 18:50 41.15083 38.05424 32150 ft 428 kts 274°
2026-04-28 18:50 41.15705 37.97685 32138 ft 428 kts 274°
2026-04-28 18:51 41.16331 37.89827 32132 ft 428 kts 274°
2026-04-28 18:51 41.16981 37.81979 32124 ft 428 kts 274°
2026-04-28 18:52 41.17656 37.74131 32121 ft 428 kts 274°
2026-04-28 18:52 41.18321 37.66285 32109 ft 428 kts 274°
2026-04-28 18:53 41.18924 37.58430 32108 ft 427 kts 272°
2026-04-28 18:53 41.19317 37.50618 32111 ft 427 kts 273°
2026-04-28 18:54 41.19919 37.42773 32109 ft 427 kts 274°
2026-04-28 18:54 41.20529 37.34930 32120 ft 427 kts 274°
2026-04-28 18:55 41.21018 37.28353 32113 ft 427 kts 274°
2026-04-28 18:55 41.21688 37.19226 32115 ft 427 kts 274°
2026-04-28 18:56 41.22300 37.11375 32114 ft 427 kts 274°
2026-04-28 18:56 41.22913 37.03523 32114 ft 427 kts 274°
2026-04-28 18:57 41.23507 36.95796 32133 ft 428 kts 274°
2026-04-28 18:57 41.24103 36.87937 32133 ft 428 kts 274°
2026-04-28 18:58 41.24694 36.80070 32143 ft 428 kts 274°
2026-04-28 18:58 41.25280 36.72204 32147 ft 428 kts 274°
2026-04-28 18:59 41.25861 36.64335 32158 ft 428 kts 274°
2026-04-28 18:59 41.26189 36.56457 32152 ft 427 kts 264°
2026-04-28 19:00 41.24958 36.48786 32113 ft 426 kts 249°
2026-04-28 19:00 41.22865 36.41427 32109 ft 426 kts 249°
2026-04-28 19:01 41.20784 36.34052 32108 ft 427 kts 250°
2026-04-28 19:01 41.18719 36.26655 32099 ft 428 kts 250°
2026-04-28 19:02 41.16653 36.19245 32093 ft 428 kts 250°
2026-04-28 19:02 41.14581 36.11834 32096 ft 429 kts 250°
2026-04-28 19:03 41.12501 36.04416 32074 ft 429 kts 250°
2026-04-28 19:03 41.10453 35.97131 32074 ft 429 kts 250°
2026-04-28 19:04 41.08346 35.89716 32059 ft 430 kts 249°
2026-04-28 19:04 41.06184 35.82374 32033 ft 431 kts 249°
2026-04-28 19:05 41.03985 35.74923 32028 ft 432 kts 249°
2026-04-28 19:05 41.01821 35.67565 32016 ft 432 kts 249°
2026-04-28 19:06 41.00039 35.61344 32045 ft 432 kts 250°
2026-04-28 19:06 40.97572 35.52685 32045 ft 432 kts 250°
2026-04-28 19:07 40.95436 35.45246 32049 ft 432 kts 250°
2026-04-28 19:07 40.93294 35.37816 32045 ft 433 kts 250°
2026-04-28 19:08 40.91146 35.30382 32038 ft 433 kts 250°
2026-04-28 19:08 40.88993 35.22946 32022 ft 434 kts 250°
2026-04-28 19:09 40.86832 35.15503 32020 ft 434 kts 250°
2026-04-28 19:09 40.84665 35.08059 32015 ft 434 kts 250°
2026-04-28 19:10 40.82489 35.00609 31995 ft 435 kts 250°
2026-04-28 19:10 40.80338 34.93263 31992 ft 436 kts 250°
2026-04-28 19:11 40.78148 34.85802 31990 ft 436 kts 250°
2026-04-28 19:11 40.75949 34.78331 31988 ft 437 kts 250°
2026-04-28 19:12 40.73735 34.70857 31976 ft 437 kts 250°
2026-04-28 19:12 40.71487 34.63411 31985 ft 438 kts 249°
2026-04-28 19:13 40.69228 34.55963 31975 ft 438 kts 249°
2026-04-28 19:13 40.66970 34.48520 31973 ft 437 kts 249°
2026-04-28 19:14 40.64710 34.41089 31970 ft 437 kts 249°
2026-04-28 19:14 40.62450 34.33671 31971 ft 436 kts 249°
2026-04-28 19:15 40.60188 34.26271 31967 ft 436 kts 249°
2026-04-28 19:15 40.58689 34.21375 31974 ft 435 kts 249°
2026-04-28 19:16 40.55672 34.11555 31965 ft 435 kts 249°
2026-04-28 19:16 40.53401 34.04182 31969 ft 435 kts 249°
2026-04-28 19:17 40.51158 33.96919 31636 ft 440 kts 249°
2026-04-28 19:17 40.50032 33.93181 31089 ft 439 kts 251°
2026-04-28 19:17 40.49051 33.89405 30638 ft 434 kts 253°
2026-04-28 19:18 40.48148 33.85644 30173 ft 430 kts 254°
2026-04-28 19:18 40.47547 33.83118 29826 ft 428 kts 254°
2026-04-28 19:18 40.46647 33.79410 29300 ft 424 kts 253°
2026-04-28 19:18 40.45740 33.75749 28837 ft 419 kts 253°
2026-04-28 19:19 40.44747 33.72171 28342 ft 417 kts 244°
2026-04-28 19:19 40.43094 33.69064 27874 ft 416 kts 227°
2026-04-28 19:19 40.40903 33.66663 27387 ft 416 kts 219°
2026-04-28 19:19 40.38596 33.64403 26908 ft 413 kts 219°
2026-04-28 19:20 40.36300 33.62161 26450 ft 410 kts 219°
2026-04-28 19:20 40.34026 33.59923 25988 ft 407 kts 219°
2026-04-28 19:20 40.31777 33.57691 25550 ft 404 kts 219°
2026-04-28 19:20 40.29547 33.55465 25110 ft 401 kts 219°
2026-04-28 19:21 40.27336 33.53252 24674 ft 399 kts 219°
2026-04-28 19:21 40.25140 33.51052 24249 ft 396 kts 219°
2026-04-28 19:21 40.22956 33.48866 23820 ft 394 kts 219°
2026-04-28 19:21 40.20783 33.46694 23350 ft 392 kts 219°
2026-04-28 19:22 40.18618 33.44534 22831 ft 391 kts 219°
2026-04-28 19:22 40.17196 33.43106 22564 ft 387 kts 220°
2026-04-28 19:22 40.14467 33.40068 21960 ft 383 kts 224°
2026-04-28 19:22 40.12493 33.37754 21524 ft 380 kts 224°
2026-04-28 19:23 40.10525 33.35470 21102 ft 377 kts 223°
2026-04-28 19:23 40.08561 33.33220 20691 ft 374 kts 223°
2026-04-28 19:23 40.06606 33.30995 20253 ft 372 kts 223°
2026-04-28 19:23 40.04663 33.28788 19837 ft 369 kts 223°
2026-04-28 19:24 40.02731 33.26595 19435 ft 367 kts 223°
2026-04-28 19:24 40.00763 33.24490 19023 ft 366 kts 219°
2026-04-28 19:24 39.98721 33.22530 18619 ft 364 kts 218°
2026-04-28 19:24 39.96661 33.20613 18199 ft 363 kts 218°
2026-04-28 19:25 39.94613 33.18704 17718 ft 361 kts 218°
2026-04-28 19:25 39.92584 33.16796 17295 ft 359 kts 218°
2026-04-28 19:25 39.90576 33.14892 16881 ft 356 kts 218°
2026-04-28 19:25 39.88583 33.12996 16475 ft 354 kts 218°
2026-04-28 19:26 39.86605 33.11112 16077 ft 351 kts 218°
2026-04-28 19:26 39.84641 33.09243 15685 ft 349 kts 218°
2026-04-28 19:26 39.82688 33.07386 15282 ft 347 kts 218°
2026-04-28 19:26 39.80743 33.05538 14874 ft 345 kts 218°
2026-04-28 19:27 39.78812 33.03704 14490 ft 343 kts 218°
2026-04-28 19:27 39.76892 33.01883 14107 ft 341 kts 218°
2026-04-28 19:27 39.75004 33.00095 13969 ft 331 kts 218°
2026-04-28 19:27 39.73221 32.98406 13744 ft 325 kts 218°
2026-04-28 19:28 39.71443 32.96723 13591 ft 316 kts 218°
2026-04-28 19:28 39.69667 32.95042 13441 ft 307 kts 218°
2026-04-28 19:28 39.67963 32.93431 13317 ft 299 kts 218°
2026-04-28 19:28 39.66329 32.91888 13203 ft 290 kts 218°
2026-04-28 19:29 39.64725 32.90374 13103 ft 281 kts 218°
2026-04-28 19:29 39.63685 32.89365 13015 ft 275 kts 224°
2026-04-28 19:29 39.62427 32.86699 12881 ft 257 kts 259°
2026-04-28 19:29 39.62366 32.84414 12627 ft 255 kts 278°
2026-04-28 19:30 39.62892 32.82235 12358 ft 254 kts 297°
2026-04-28 19:30 39.63846 32.80321 12164 ft 251 kts 304°
2026-04-28 19:30 39.64985 32.78654 12021 ft 247 kts 323°
2026-04-28 19:30 39.66585 32.77838 11926 ft 254 kts 351°
2026-04-28 19:31 39.68368 32.78029 11671 ft 263 kts 17°
2026-04-28 19:31 39.69979 32.79155 11440 ft 264 kts 33°
2026-04-28 19:31 39.71459 32.80560 11169 ft 264 kts 35°
2026-04-28 19:31 39.72910 32.81977 10939 ft 259 kts 35°
2026-04-28 19:32 39.74346 32.83364 10644 ft 255 kts 35°
2026-04-28 19:32 39.75751 32.84717 10359 ft 247 kts 34°
2026-04-28 19:32 39.77102 32.86004 10127 ft 236 kts 34°
2026-04-28 19:32 39.78403 32.87236 9882 ft 226 kts 34°
2026-04-28 19:33 39.79645 32.88413 9627 ft 217 kts 34°
2026-04-28 19:33 39.80855 32.89558 9432 ft 214 kts 34°
2026-04-28 19:33 39.82052 32.90690 9221 ft 211 kts 34°
2026-04-28 19:33 39.83226 32.91801 9038 ft 206 kts 34°
2026-04-28 19:34 39.84376 32.92890 8820 ft 203 kts 34°
2026-04-28 19:34 39.85524 32.93978 8654 ft 206 kts 34°
2026-04-28 19:34 39.86682 32.95074 8555 ft 206 kts 34°
2026-04-28 19:34 39.87828 32.96161 8420 ft 202 kts 34°
2026-04-28 19:35 39.88953 32.97229 8189 ft 198 kts 34°
2026-04-28 19:35 39.90133 32.98104 7989 ft 195 kts
2026-04-28 19:35 39.91415 32.97874 7759 ft 186 kts 327°
2026-04-28 19:35 39.92422 32.96856 7547 ft 184 kts 317°
2026-04-28 19:36 39.93375 32.95724 7297 ft 187 kts 316°
2026-04-28 19:36 39.94333 32.94576 7026 ft 186 kts 316°
2026-04-28 19:36 39.95269 32.93459 6769 ft 176 kts 316°
2026-04-28 19:36 39.96145 32.92414 6490 ft 169 kts 317°
2026-04-28 19:37 39.96992 32.91406 6259 ft 163 kts 317°
2026-04-28 19:37 39.97546 32.90747 6103 ft 163 kts 317°
2026-04-28 19:37 39.98863 32.89841 5789 ft 161 kts 353°
2026-04-28 19:37 39.99991 32.89883 5543 ft 167 kts 14°
2026-04-28 19:38 40.00983 32.90589 5318 ft 161 kts 29°
2026-04-28 19:38 40.01936 32.91309 5083 ft 158 kts 31°
2026-04-28 19:38 40.02855 32.92113 4888 ft 159 kts 35°
2026-04-28 19:38 40.03752 32.92958 4665 ft 158 kts 36°
2026-04-28 19:39 40.04638 32.93806 4444 ft 158 kts 36°
2026-04-28 19:39 40.05526 32.94656 4228 ft 158 kts 36°
2026-04-28 19:39 40.06411 32.95504 4017 ft 158 kts 36°
2026-04-28 19:39 40.07293 32.96348 3818 ft 157 kts 36°
2026-04-28 19:40 40.08171 32.97185 3628 ft 157 kts 36°
2026-04-28 19:40 40.09060 32.98018 3394 ft 158 kts 37°
2026-04-28 19:40 40.09939 32.98879 3183 ft 157 kts 37°
2026-04-28 19:40 40.10790 32.99692 3117 ft 141 kts 37°
2026-04-28 19:41 40.11478 33.00350 3134 ft 102 kts 36°
2026-04-28 19:41 40.11929 33.00780 3145 ft 59 kts 36°
2026-04-28 19:41 40.12192 33.01022 3152 ft 35 kts 27°
2026-04-28 19:41 40.12359 33.01070 3155 ft 18 kts
2026-04-28 19:42 40.12395 33.01075 3156 ft 0 kts
2026-04-28 19:42 40.12401 33.01076 3158 ft 2 kts
2026-04-28 19:42 40.12419 33.01078 3156 ft 6 kts
2026-04-28 19:43 40.12498 33.01085 3158 ft 9 kts 344°
2026-04-28 19:43 40.12502 33.01018 3156 ft 10 kts 224°
2026-04-28 19:43 40.12438 33.00958 3157 ft 12 kts 216°
2026-04-28 19:43 40.12374 33.00896 3154 ft 11 kts 216°
2026-04-28 19:44 40.12310 33.00835 3152 ft 11 kts 216°
2026-04-28 19:44 40.12248 33.00776 3152 ft 11 kts 216°
2026-04-28 19:44 40.12188 33.00719 3149 ft 11 kts 216°
2026-04-28 19:44 40.12123 33.00656 3147 ft 12 kts 216°
2026-04-28 19:45 40.12049 33.00585 3145 ft 14 kts 216°
2026-04-28 19:45 40.11967 33.00506 3143 ft 15 kts 216°
2026-04-28 19:45 40.11887 33.00430 3141 ft 14 kts 216°
2026-04-28 19:45 40.11810 33.00357 3139 ft 13 kts 216°
2026-04-28 19:46 40.11737 33.00287 3137 ft 13 kts 216°
2026-04-28 19:46 40.11667 33.00221 3135 ft 9 kts 216°
2026-04-28 19:46 40.11619 33.00176 3134 ft 8 kts 216°
2026-04-28 19:46 40.11612 33.00106 3131 ft 12 kts 302°
2026-04-28 19:47 40.11679 32.99984 3123 ft 20 kts 306°
2026-04-28 19:47 40.11754 32.99851 3116 ft 19 kts 306°
2026-04-28 19:47 40.11800 32.99737 3112 ft 12 kts 266°
2026-04-28 19:47 40.11780 32.99636 3112 ft 11 kts 229°
2026-04-28 19:48 40.11723 32.99622 3112 ft 5 kts 181°
2026-04-28 19:48 40.11709 32.99621 3112 ft 0 kts 183°